DW2849 Weather Reports


Display with metric or nautical units.
time (UTC)temp
F
wind
direction
speed
MPH
gust
MPH
rain 1hr
in
rain 24hr
in
rain mn
in
humidity
%
barometer
mb
20260510233831 70 163 1.0 2.0 0.00 0.00 0.00 73 1012.5
20260510233133 70 158 1.0 2.0 0.00 0.00 0.00 72 1012.7
20260510232430 71 152 1.0 3.0 0.00 0.00 0.00 72 1012.8
20260510231731 71 205 2.0 4.0 0.00 0.00 0.00 72 1012.9
20260510230839 71 191 2.0 4.0 0.00 0.00 0.00 72 1012.9
20260510230140 72 214 1.0 4.0 0.00 0.00 0.00 72 1013.0
20260510225440 72 199 2.0 5.0 0.00 0.00 0.00 71 1013.1
20260510224739 72 172 2.0 5.0 0.00 0.00 0.00 70 1013.1
20260510224039 72 233 2.0 5.0 0.00 0.00 0.00 71 1013.2
20260510223339 72 177 1.0 4.0 0.00 0.00 0.00 71 1013.3
20260510222448 72 214 2.0 5.0 0.00 0.00 0.00 70 1013.4
20260510221751 72 194 2.0 4.0 0.00 0.00 0.00 70 1013.5
20260510221048 71 233 2.0 4.0 0.00 0.00 0.00 71 1013.6
20260510220348 72 231 2.0 4.0 0.00 0.00 0.00 69 1013.6
20260510215648 72 250 2.0 6.0 0.00 0.00 0.00 70 1013.7
20260510214948 71 186 2.0 4.0 0.00 0.00 0.00 72 1013.7
20260510214248 0 197 1.0 6.0 0.00 0.00 0.00 1013.8
20260510213355 69 264 2.0 5.0 0.00 0.00 0.00 73 1013.9
20260510212504 69 211 1.0 5.0 0.00 0.00 0.00 72 1013.9
20260510211804 68 191 2.0 4.0 0.00 0.00 0.00 74 1013.9
20260510211104 68 166 2.0 3.0 0.00 0.00 0.00 74 1013.9
20260510210404 68 129 2.0 3.0 0.00 0.00 0.00 75 1014.0
20260510205704 69 186 2.0 3.0 0.00 0.00 0.00 74 1013.9
20260510205004 68 169 1.0 3.0 0.00 0.00 0.00 76 1013.9
20260510204304 68 174 1.0 4.0 0.00 0.00 0.00 75 1013.9
20260510203604 68 155 2.0 3.0 0.00 0.00 0.00 75 1013.9
20260510202714 68 177 2.0 3.0 0.00 0.00 0.00 74 1014.0
20260510202013 69 239 1.0 3.0 0.00 0.00 0.00 74 1014.1
20260510201122 68 208 1.0 3.0 0.00 0.00 0.00 75 1014.0
20260510200421 67 160 2.0 3.0 0.00 0.00 0.00 76 1014.1
20260510195721 67 172 2.0 6.0 0.00 0.00 0.00 76 1014.2
20260510195022 66 211 2.0 6.0 0.00 0.00 0.00 76 1014.2
20260510194321 66 186 1.0 4.0 0.00 0.00 0.00 77 1014.2
20260510193621 66 148 2.0 6.0 0.00 0.00 0.00 75 1014.3
20260510192922 65 202 2.0 6.0 0.00 0.00 0.00 76 1014.3
20260510192222 65 138 2.0 3.0 0.00 0.00 0.00 77 1014.3
20260510191522 63 177 2.0 2.0 0.00 0.00 0.00 78 1014.3
20260510190630 63 186 1.0 3.0 0.00 0.00 0.00 79 1014.3
20260510185930 63 169 1.0 4.0 0.00 0.00 0.00 78 1014.3
20260510185230 63 101 2.0 4.0 0.00 0.00 0.00 78 1014.3
20260510184530 63 177 2.0 3.0 0.00 0.00 0.00 77 1014.3
20260510183830 63 158 2.0 4.0 0.00 0.00 0.00 77 1014.3
20260510182937 63 152 3.0 4.0 0.00 0.00 0.00 78 1014.2
20260510182237 62 129 2.0 4.0 0.00 0.00 0.00 78 1014.2
20260510181538 63 155 1.0 3.0 0.00 0.00 0.00 77 1014.2
20260510180837 62 110 2.0 3.0 0.00 0.00 0.00 78 1014.2
20260510180137 62 197 1.0 4.0 0.00 0.00 0.00 78 1014.3
20260510175246 61 208 1.0 4.0 0.00 0.00 0.00 78 1014.4
20260510174546 61 180 1.0 3.0 0.00 0.00 0.00 79 1014.4
20260510173655 60 112 1.0 3.0 0.00 0.00 0.00 80 1014.4
20260510172954 59 135 2.0 4.0 0.00 0.00 0.00 80 1014.3
20260510172255 59 135 2.0 2.0 0.00 0.00 0.00 80 1014.3
20260510171601 59 135 2.0 2.0 0.00 0.00 0.00 81 1014.3
20260510170854 59 68 0.0 2.0 0.00 0.00 0.00 80 1014.3
20260510170155 58 101 1.0 3.0 0.00 0.00 0.00 81 1014.2
20260510165306 57 96 0.0 3.0 0.00 0.00 0.00 81 1014.2
20260510164603 56 22 1.0 2.0 0.00 0.00 0.00 82 1014.1
20260510163903 55 45 0.0 2.0 0.00 0.00 0.00 84 1014.1
20260510163203 54 22 1.0 2.0 0.00 0.00 0.00 84 1014.1
20260510162312 53 39 0.0 3.0 0.00 0.00 0.00 85 1014.1
20260510161612 52 11 2.0 2.0 0.00 0.00 0.00 86 1014.0
20260510160912 52 53 0.0 1.0 0.00 0.00 0.00 86 1014.0
20260510160212 52 135 0.0 2.0 0.00 0.00 0.00 86 1013.9
20260510155512 51 217 1.0 2.0 0.00 0.00 0.00 87 1013.9
20260510154812 50 236 0.0 0.0 0.00 0.00 0.00 87 1013.9
20260510153920 50 180 0.0 1.0 0.00 0.00 0.00 87 1013.8
20260510153222 50 228 0.0 1.0 0.00 0.00 0.00 87 1013.8
20260510152520 50 17 0.0 0.0 0.00 0.00 0.00 87 1013.8
20260510151820 49 0 0.0 0.0 0.00 0.00 0.00 88 1013.8
20260510151120 49 0 0.0 0.0 0.00 0.00 0.00 88 1013.8
20260510150420 48 0 0.0 0.0 0.00 0.00 0.00 88 1013.8
20260510145529 48 0 0.0 0.0 0.00 0.00 0.00 88 1013.6
20260510144829 47 0 0.0 1.0 0.00 0.00 0.00 88 1013.6
20260510143938 47 0 1.0 2.0 0.00 0.00 0.00 88 1013.5
20260510143238 47 8 2.0 3.0 0.00 0.00 0.00 88 1013.5
20260510142537 47 45 2.0 3.0 0.00 0.00 0.00 88 1013.4
20260510141838 47 45 2.0 2.0 0.00 0.00 0.00 88 1013.4
20260510141138 47 45 2.0 3.0 0.00 0.00 0.00 88 1013.3
20260510140437 47 35 2.0 3.0 0.00 0.00 0.00 88 1013.2
20260510135738 48 22 2.0 3.0 0.00 0.00 0.00 88 1013.1
20260510134150 47 0 0.0 1.0 0.00 0.00 0.00 87 1012.9
20260510133446 47 270 0.0 1.0 0.00 0.00 0.00 88 1012.8
20260510132555 46 0 1.0 2.0 0.00 0.00 0.00 88 1012.7
20260510131855 46 22 1.0 2.0 0.00 0.00 0.00 88 1012.7
20260510131155 46 0 2.0 3.0 0.00 0.00 0.00 88 1012.6
20260510130456 46 42 3.0 3.0 0.00 0.00 0.00 88 1012.6
20260510125755 46 45 3.0 3.0 0.00 0.00 0.00 88 1012.6
20260510125055 47 45 2.0 3.0 0.00 0.00 0.00 87 1012.7
20260510124356 48 0 3.0 3.0 0.00 0.00 0.00 87 1012.7
20260510123655 49 318 0.0 1.0 0.00 0.00 0.00 87 1012.7
20260510122807 48 312 0.0 0.0 0.00 0.00 0.00 87 1012.7
20260510122104 48 225 0.0 2.0 0.00 0.00 0.00 88 1012.7
20260510121404 48 225 1.0 2.0 0.00 0.00 0.00 88 1012.7
20260510120704 49 270 0.0 1.0 0.00 0.00 0.00 88 1012.7
20260510120004 49 270 0.0 0.0 0.00 0.00 0.00 88 1012.7
20260510115306 50 225 0.0 0.0 0.00 0.00 0.00 88 1012.8
20260510114411 50 225 1.0 1.0 0.00 0.00 0.00 88 1012.8
20260510113711 52 45 0.0 0.0 0.00 0.00 0.00 87 1012.8
20260510113011 51 45 0.0 0.0 0.00 0.00 0.00 87 1012.8
20260510112311 51 45 0.0 1.0 0.00 0.00 0.00 87 1012.8
20260510111421 50 0 1.0 2.0 0.00 0.00 0.00 87 1012.8
20260510110528 50 0 1.0 2.0 0.00 0.00 0.00 87 1012.8
20260510105829 50 0 2.0 2.0 0.00 0.00 0.00 87 1012.8
20260510105128 50 340 0.0 0.0 0.00 0.00 0.00 87 1012.8
20260510104429 51 180 0.0 0.0 0.00 0.00 0.00 87 1012.8
20260510103729 51 180 0.0 0.0 0.00 0.00 0.00 87 1012.7
20260510103029 51 56 0.0 0.0 0.00 0.00 0.00 87 1012.8
20260510102329 52 45 0.0 0.0 0.00 0.00 0.00 87 1012.7
20260510101629 51 45 0.0 0.0 0.00 0.00 0.00 87 1012.8
20260510100929 51 22 0.0 0.0 0.00 0.00 0.00 88 1012.8
20260510100229 51 22 0.0 0.0 0.00 0.00 0.00 88 1012.7
20260510095146 51 22 0.0 0.0 0.00 0.00 0.00 87 1012.8
20260510094446 51 45 0.0 0.0 0.00 0.00 0.00 87 1012.8
20260510093746 51 45 0.0 0.0 0.00 0.00 0.00 87 1012.8
20260510093046 52 45 0.0 0.0 0.00 0.00 0.00 87 1012.7
20260510092346 52 45 0.0 0.0 0.00 0.00 0.00 87 1012.7
20260510091646 52 45 0.0 0.0 0.00 0.00 0.00 87 1012.7
20260510090946 53 135 0.0 0.0 0.00 0.00 0.00 87 1012.8
20260510090055 53 135 0.0 0.0 0.00 0.00 0.00 86 1012.9
20260510085355 54 0 0.0 0.0 0.00 0.00 0.00 86 1012.9
20260510084655 54 0 0.0 0.0 0.00 0.00 0.00 86 1013.0
20260510083955 54 0 0.0 1.0 0.00 0.00 0.00 86 1013.0
20260510083255 54 0 1.0 2.0 0.00 0.00 0.00 86 1013.0
20260510082555 54 6 1.0 2.0 0.00 0.00 0.00 86 1013.1
20260510081855 55 22 0.0 2.0 0.00 0.00 0.00 86 1013.1
20260510081155 55 28 2.0 2.0 0.00 0.00 0.00 85 1013.0
20260510080304 54 22 1.0 2.0 0.00 0.00 0.00 85 1013.0
20260510075603 54 0 0.0 2.0 0.00 0.00 0.00 86 1013.0
20260510074712 54 0 0.0 2.0 0.00 0.00 0.00 86 1013.0
20260510074012 54 0 2.0 2.0 0.00 0.00 0.00 85 1013.0
20260510073312 54 0 1.0 1.0 0.00 0.00 0.00 86 1013.0
20260510072612 54 45 0.0 0.0 0.00 0.00 0.00 86 1013.1
20260510071912 55 45 0.0 0.0 0.00 0.00 0.00 86 1013.1
20260510071212 54 45 0.0 0.0 0.00 0.00 0.00 86 1013.1
20260510070512 54 45 0.0 0.0 0.00 0.00 0.00 85 1013.0
20260510065621 55 45 0.0 0.0 0.00 0.00 0.00 86 1013.0
20260510064921 56 45 0.0 0.0 0.00 0.00 0.00 85 1013.0
20260510064221 57 45 0.0 0.0 0.00 0.00 0.00 85 1013.0
20260510063521 56 45 0.0 2.0 0.00 0.00 0.00 85 1012.9
20260510062821 57 45 1.0 2.0 0.00 0.00 0.00 85 1012.9
20260510061930 58 45 1.0 2.0 0.00 0.00 0.00 84 1012.9
20260510061229 58 45 2.0 2.0 0.00 0.00 0.00 83 1012.8
20260510060338 58 45 0.0 0.0 0.00 0.00 0.00 84 1012.9
20260510055638 58 45 0.0 0.0 0.00 0.00 0.00 84 1013.0
20260510054938 59 45 0.0 0.0 0.00 0.00 0.00 82 1013.0
20260510054238 59 45 0.0 0.0 0.00 0.00 0.00 82 1013.0
20260510053538 59 45 0.0 0.0 0.00 0.00 0.00 81 1012.9
20260510052838 59 228 0.0 0.0 0.00 0.00 0.00 82 1013.0
20260510052138 58 225 0.0 0.0 0.00 0.00 0.00 83 1012.9
20260510051438 58 225 0.0 0.0 0.00 0.00 0.00 83 1013.0
20260510050548 57 191 0.0 0.0 0.00 0.00 0.00 84 1013.0
20260510045847 57 180 0.0 0.0 0.00 0.00 0.00 84 1013.0
20260510045147 57 39 0.0 0.0 0.00 0.00 0.00 84 1013.0
20260510044447 56 180 0.0 0.0 0.00 0.00 0.00 84 1013.0
20260510043555 57 180 0.0 1.0 0.00 0.00 0.00 84 1012.9
20260510042856 57 180 0.0 1.0 0.00 0.00 0.00 84 1012.8
20260510042005 57 180 0.0 2.0 0.00 0.00 0.00 84 1012.7
20260510041304 59 180 1.0 2.0 0.00 0.00 0.00 83 1012.7
20260510040605 60 180 0.0 2.0 0.00 0.00 0.00 82 1012.6
20260510035904 61 0 0.0 0.0 0.00 0.00 0.00 80 1012.6
20260510035205 62 0 0.0 0.0 0.00 0.00 0.00 80 1012.5
20260510034313 61 0 0.0 0.0 0.00 0.00 0.00 80 1012.4
20260510033613 62 0 0.0 2.0 0.00 0.00 0.00 78 1012.3
20260510032913 63 0 1.0 2.0 0.00 0.00 0.00 78 1012.3
20260510032213 63 0 2.0 2.0 0.00 0.00 0.00 77 1012.2
20260510031514 63 0 2.0 2.0 0.00 0.00 0.00 76 1012.2
20260510030621 63 0 0.0 0.0 0.00 0.00 0.00 75 1012.1
20260510025922 64 0 0.0 0.0 0.00 0.00 0.00 74 1012.2
20260510025221 64 0 0.0 2.0 0.00 0.00 0.00 74 1012.2
20260510024522 65 323 0.0 2.0 0.00 0.00 0.00 74 1012.1
20260510023822 65 315 0.0 1.0 0.00 0.00 0.00 74 1012.1
20260510023121 64 315 0.0 0.0 0.00 0.00 0.00 73 1012.1
20260510022422 64 315 0.0 2.0 0.00 0.00 0.00 74 1012.0
20260510021530 64 315 2.0 3.0 0.00 0.00 0.00 74 1012.0
20260510020830 64 315 0.0 3.0 0.00 0.00 0.00 74 1012.1
20260510020131 64 309 2.0 4.0 0.00 0.00 0.00 73 1012.1
20260510015430 65 332 2.0 3.0 0.00 0.00 0.00 73 1012.1
20260510014730 65 315 2.0 2.0 0.00 0.00 0.00 73 1012.1
20260510013839 65 305 2.0 4.0 0.00 0.00 0.00 73 1012.1
20260510013139 66 292 2.0 4.0 0.00 0.00 0.00 73 1012.1
20260510012439 66 265 2.0 3.0 0.00 0.00 0.00 73 1012.1
20260510011739 66 262 2.0 6.0 0.00 0.00 0.00 72 1012.2
20260510011039 66 240 4.0 6.0 0.00 0.00 0.00 73 1012.2
20260510010339 67 205 2.0 4.0 0.00 0.00 0.00 73 1012.2
20260510005448 67 252 2.0 4.0 0.00 0.00 0.00 72 1012.3
20260510004749 67 233 2.0 5.0 0.00 0.00 0.00 72 1012.3
20260510004048 67 225 2.0 6.0 0.00 0.00 0.00 72 1012.4
20260510003348 68 252 3.0 5.0 0.00 0.00 0.00 71 1012.5
20260510002648 68 278 3.0 5.0 0.00 0.00 0.00 71 1012.5
20260510001756 69 252 3.0 5.0 0.00 0.00 0.00 70 1012.5
20260510001057 69 248 3.0 6.0 0.00 0.00 0.00 70 1012.6
20260510000357 69 281 4.0 6.0 0.00 0.00 0.00 71 1012.7
20260509235505 69 276 4.0 8.0 0.00 0.00 0.00 70 1012.7
20260509234805 69 272 2.0 6.0 0.00 0.00 0.00 72 1012.8